SAS1327 ENAL-ENGM

Flight info

Callsign SAS1327
Flight time N/A
Altitude 29000
Route GIGIR DCT KEMIV DCT BELGU
Aircraft A320/M-SDE3FGHIRWY/LB1

Departure

Time 2026-04-30 08:37
Airport Ålesund Airport (ENAL)

Arrival

Time N/A
Airport Oslo-Gardermoen International Airport (ENGM)
Time Latitude Longitude Altitude Speed Heading
2026-04-30 08:21 62.55892 6.11386 75 ft 0 kts 155°
2026-04-30 08:30 62.55903 6.11375 62 ft 2 kts 155°
2026-04-30 08:31 62.55919 6.11359 65 ft 2 kts 155°
2026-04-30 08:31 62.55933 6.11340 64 ft 2 kts 106°
2026-04-30 08:31 62.55935 6.11317 72 ft 0 kts 64°
2026-04-30 08:33 62.55939 6.11336 61 ft 4 kts 62°
2026-04-30 08:33 62.55973 6.11467 70 ft 15 kts 62°
2026-04-30 08:33 62.56058 6.11636 73 ft 18 kts 47°
2026-04-30 08:33 62.56121 6.11910 64 ft 22 kts 64°
2026-04-30 08:34 62.56159 6.12057 62 ft 0 kts 46°
2026-04-30 08:34 62.56165 6.12067 67 ft 3 kts 38°
2026-04-30 08:35 62.56219 6.12121 62 ft 13 kts 17°
2026-04-30 08:35 62.56310 6.12264 59 ft 20 kts 58°
2026-04-30 08:35 62.56384 6.12579 55 ft 27 kts 65°
2026-04-30 08:35 62.56436 6.12943 55 ft 17 kts 93°
2026-04-30 08:36 62.56475 6.12999 53 ft 3 kts 293°
2026-04-30 08:36 62.56466 6.12953 54 ft 4 kts 246°
2026-04-30 08:36 62.56449 6.12874 52 ft 12 kts 244°
2026-04-30 08:36 62.56316 6.12274 60 ft 78 kts 244°
2026-04-30 08:37 62.56005 6.10846 73 ft 129 kts 245°
2026-04-30 08:37 62.55583 6.08837 295 ft 148 kts 246°
2026-04-30 08:37 62.55204 6.06901 1075 ft 134 kts 244°
2026-04-30 08:37 62.54839 6.04953 1398 ft 151 kts 248°
2026-04-30 08:38 62.54579 6.03480 1580 ft 164 kts 248°
2026-04-30 08:38 62.54162 6.01079 1996 ft 176 kts 248°
2026-04-30 08:38 62.53708 5.98460 2335 ft 195 kts 246°
2026-04-30 08:38 62.53157 5.95592 2638 ft 219 kts 245°
2026-04-30 08:39 62.52493 5.92513 3225 ft 232 kts 241°
2026-04-30 08:39 62.51674 5.89336 3846 ft 247 kts 235°
2026-04-30 08:39 62.50423 5.86845 4801 ft 247 kts 210°
2026-04-30 08:39 62.48765 5.85706 5634 ft 257 kts 188°
2026-04-30 08:40 62.46978 5.86250 5986 ft 268 kts 161°
2026-04-30 08:40 62.45278 5.87999 6789 ft 273 kts 158°
2026-04-30 08:40 62.43631 5.90136 7577 ft 283 kts 141°
2026-04-30 08:40 62.42497 5.93698 8301 ft 297 kts 112°
2026-04-30 08:41 62.42262 5.98158 9015 ft 307 kts 81°
2026-04-30 08:41 62.42959 6.02553 9756 ft 312 kts 65°
2026-04-30 08:41 62.43860 6.06878 10369 ft 325 kts 64°
2026-04-30 08:41 62.44826 6.11461 10571 ft 348 kts 64°
2026-04-30 08:42 62.45854 6.16360 10863 ft 365 kts 64°
2026-04-30 08:42 62.46902 6.21403 11454 ft 371 kts 65°
2026-04-30 08:42 62.47946 6.26561 12124 ft 375 kts 68°
2026-04-30 08:42 62.48612 6.32024 12775 ft 380 kts 82°
2026-04-30 08:43 62.48698 6.37780 13429 ft 384 kts 96°
2026-04-30 08:43 62.48191 6.43466 14095 ft 385 kts 110°
2026-04-30 08:43 62.47121 6.48763 14679 ft 385 kts 123°
2026-04-30 08:43 62.45710 6.53698 15283 ft 387 kts 125°
2026-04-30 08:44 62.44280 6.58658 15869 ft 390 kts 125°
2026-04-30 08:44 62.42834 6.63669 16452 ft 394 kts 126°
2026-04-30 08:44 62.41379 6.68699 17041 ft 397 kts 126°
2026-04-30 08:44 62.39912 6.73766 17611 ft 400 kts 126°
2026-04-30 08:45 62.38429 6.78870 18191 ft 403 kts 126°
2026-04-30 08:45 62.36948 6.83941 18683 ft 407 kts 126°
2026-04-30 08:45 62.35415 6.89188 19213 ft 410 kts 125°
2026-04-30 08:45 62.33919 6.94320 19839 ft 411 kts 125°
2026-04-30 08:46 62.32391 6.99557 20416 ft 414 kts 125°
2026-04-30 08:46 62.30848 7.04819 20968 ft 418 kts 125°
2026-04-30 08:46 62.29286 7.10123 21491 ft 421 kts 125°
2026-04-30 08:46 62.27709 7.15459 22004 ft 425 kts 125°
2026-04-30 08:47 62.26118 7.20840 22497 ft 428 kts 125°
2026-04-30 08:47 62.24511 7.26259 23002 ft 432 kts 125°
2026-04-30 08:47 62.22893 7.31697 23482 ft 435 kts 125°
2026-04-30 08:47 62.21259 7.37184 23969 ft 439 kts 124°
2026-04-30 08:48 62.19616 7.42738 24385 ft 442 kts 124°
2026-04-30 08:48 62.17985 7.48342 24785 ft 444 kts 124°
2026-04-30 08:48 62.16360 7.53974 25195 ft 447 kts 123°
2026-04-30 08:48 62.14726 7.59642 25608 ft 448 kts 123°
2026-04-30 08:49 62.13082 7.65329 26006 ft 450 kts 124°
2026-04-30 08:49 62.11423 7.71025 26393 ft 452 kts 124°
2026-04-30 08:49 62.09748 7.76740 26767 ft 454 kts 124°
2026-04-30 08:49 62.08067 7.82457 27146 ft 456 kts 124°
2026-04-30 08:50 62.06374 7.88203 27521 ft 458 kts 124°
2026-04-30 08:50 62.04668 7.93973 27902 ft 460 kts 124°
2026-04-30 08:50 62.02952 7.99759 28250 ft 464 kts 123°
2026-04-30 08:50 62.01223 8.05567 28571 ft 466 kts 123°
2026-04-30 08:51 61.99479 8.11406 28908 ft 469 kts 123°
2026-04-30 08:51 61.97726 8.17263 29243 ft 470 kts 123°
2026-04-30 08:51 61.95972 8.23118 29416 ft 467 kts 123°
2026-04-30 08:52 61.92524 8.34596 29422 ft 458 kts 123°
2026-04-30 08:52 61.89093 8.45957 29428 ft 457 kts 123°
2026-04-30 08:53 61.85661 8.57279 29425 ft 456 kts 124°
2026-04-30 08:53 61.82212 8.68593 29412 ft 458 kts 123°
2026-04-30 08:54 61.78742 8.79893 29412 ft 459 kts 123°